Weather History for KBWG - October, 2014

Change the Weather History Date:

Friday, October 31, 2014

  Actual Average Record
Temperature  
Mean Temperature 45 °F 54 °F  
Max Temperature 51 °F 66 °F 87 °F (1922)
Min Temperature 39 °F 42 °F 17 °F (1887)
Degree Days  
Heating Degree Days 20 11  
Month to date heating degree days 194 227  
Since 1 July heating degree days 218 263  
Cooling Degree Days 0 0  
Month to date cooling degree days 32 33  
Year to date cooling degree days 1488 1488  
Moisture  
Dew Point 38 °F    
Average Humidity 67    
Maximum Humidity 89    
Minimum Humidity 45    
Precipitation  
Precipitation 0.03 in 0.11 in 2.70 in (1942)
Month to date precipitation 5.38 3.38  
Year to date precipitation 41.91 40.87  
Snow  
Snow 0.00 in 0.00 in 0.90 in (1993)
Month to date snowfall 0.0 T  
Since 1 July snowfall 0.0 T  
Since 1 September snowfall 0.0 T  
Snow Depth 0.00 in    
Sea Level Pressure  
Sea Level Pressure 30.05 in    
Wind  
Wind Speed 8 mph (NW)    
Max Wind Speed 22 mph    
Max Gust Speed 34 mph    
Visibility 9 miles    
Events Rain    
T = Trace of Precipitation, MM = Missing Value Source: NWS Daily Summary

Daily Weather History Graph

Daily Weather History Graph

Search for Another Location

Airport or City:

Trip Planner

Search our weather history database for the weather conditions in past years. The results will help you decide how hot, cold, wet, or windy it might be!

Date:

Astronomy

Oct. 31, 2014 Rise Set
Actual Time 7:08 AM CDT 5:49 PM CDT
Civil Twilight 6:41 AM CDT 6:16 PM CDT
Nautical Twilight 6:11 AM CDT 6:46 PM CDT
Astronomical Twilight 5:40 AM CDT 7:16 PM CDT
Moon 1:53 PM CDT (10/31) 12:07 AM CDT (10/31)
Length of Visible Light 11h 34m
Length of Day
10h 40m
First Quarter, 57% of the Moon is Illuminated
Oct 31
First Quarter
Nov 6
Full
Nov 14
Last Quarter
Nov 22
New
Nov 29
First Quarter

Hourly Weather History & Observations

Time (CDT) Temp. Windchill Dew Point Humidity Pressure Visibility Wind Dir Wind Speed Gust Speed Precip Events Conditions
12:53 AM 48.0 °F - 43.0 °F 83% 30.03 in 10.0 mi Calm Calm - N/A   Overcast
1:53 AM 48.0 °F - 43.0 °F 83% 30.01 in 10.0 mi ESE 3.5 mph - N/A   Overcast
2:53 AM 48.0 °F - 43.0 °F 83% 30.00 in 10.0 mi Calm Calm - N/A   Overcast
3:53 AM 48.0 °F - 43.0 °F 83% 29.99 in 10.0 mi Calm Calm - N/A   Overcast
4:53 AM 48.0 °F - 43.0 °F 83% 30.00 in 10.0 mi Calm Calm - N/A   Overcast
5:53 AM 48.9 °F - 43.0 °F 80% 30.01 in 10.0 mi Calm Calm - N/A   Overcast
6:53 AM 48.9 °F - 44.1 °F 83% 30.02 in 8.0 mi Calm Calm - 0.00 in Rain Light Rain
7:53 AM 48.0 °F - 44.1 °F 86% 30.02 in 10.0 mi Calm Calm - 0.01 in Rain Light Rain
8:53 AM 48.9 °F - 44.1 °F 83% 30.04 in 10.0 mi North 3.5 mph - 0.00 in   Overcast
9:21 AM 48.9 °F - 44.1 °F 83% 30.04 in 9.0 mi Variable 5.8 mph - N/A   Overcast
9:53 AM 48.0 °F - 44.1 °F 86% 30.05 in 2.0 mi NNW 3.5 mph - N/A   Overcast
10:14 AM 48.0 °F - 45.0 °F 89% 30.04 in 5.0 mi NW 4.6 mph - N/A   Overcast
10:26 AM 48.9 °F - 45.0 °F 86% 30.04 in 7.0 mi NW 6.9 mph - N/A   Overcast
10:37 AM 48.9 °F - 45.0 °F 86% 30.04 in 9.0 mi NW 4.6 mph - N/A   Overcast
10:53 AM 48.9 °F - 44.1 °F 83% 30.04 in 9.0 mi NNW 9.2 mph - N/A   Overcast
11:35 AM 50.0 °F - 44.1 °F 80% 30.03 in 10.0 mi NNW 6.9 mph - N/A   Overcast
11:53 AM 51.1 °F - 43.0 °F 74% 30.02 in 10.0 mi NNW 8.1 mph - N/A   Overcast
12:53 PM 51.1 °F - 39.9 °F 66% 30.01 in 10.0 mi WNW 15.0 mph 23.0 mph N/A   Overcast
1:14 PM 48.9 °F - 39.9 °F 71% 30.01 in 9.0 mi NW 18.4 mph 26.5 mph N/A   Overcast
1:24 PM 46.0 °F 39.9 °F 39.0 °F 76% 30.03 in 7.0 mi NW 13.8 mph 32.2 mph N/A   Overcast
1:37 PM 44.1 °F 38.6 °F 37.9 °F 79% 30.03 in 5.0 mi NW 10.4 mph 20.7 mph N/A   Haze
1:53 PM 43.0 °F 38.2 °F 39.0 °F 86% 30.04 in 4.0 mi NNW 8.1 mph - 0.00 in   Overcast
2:45 PM 42.1 °F 34.5 °F 35.1 °F 76% 30.05 in 10.0 mi NW 15.0 mph 23.0 mph 0.01 in   Overcast
2:53 PM 43.0 °F 35.4 °F 33.1 °F 68% 30.06 in 10.0 mi NW 16.1 mph 26.5 mph 0.01 in   Overcast
3:53 PM 46.9 °F - 27.0 °F 46% 30.05 in 10.0 mi NW 18.4 mph 27.6 mph N/A   Mostly Cloudy
4:53 PM 45.0 °F 39.3 °F 26.1 °F 48% 30.09 in 10.0 mi NNW 11.5 mph 23.0 mph N/A   Mostly Cloudy
5:53 PM 41.0 °F 35.2 °F 28.9 °F 62% 30.12 in 10.0 mi NNW 9.2 mph - N/A   Scattered Clouds
6:53 PM 43.0 °F 38.2 °F 28.0 °F 56% 30.12 in 10.0 mi NW 8.1 mph 17.3 mph N/A   Overcast
7:53 PM 39.0 °F 31.8 °F 30.9 °F 73% 30.15 in 10.0 mi NW 11.5 mph 17.3 mph 0.00 in   Overcast
8:53 PM 39.9 °F 33.4 °F 28.9 °F 65% 30.13 in 10.0 mi NW 10.4 mph 20.7 mph 0.01 in   Overcast
9:53 PM 42.1 °F 34.9 °F 26.1 °F 53% 30.13 in 10.0 mi NW 13.8 mph 24.2 mph N/A   Overcast
10:53 PM 41.0 °F 32.2 °F 26.1 °F 55% 30.12 in 10.0 mi NNW 18.4 mph 25.3 mph N/A   Overcast
11:53 PM 39.9 °F 31.4 °F 28.9 °F 65% 30.13 in 10.0 mi NNW 16.1 mph 25.3 mph N/A   Overcast